STARLINK-3073, 49135

Orbit data source: Space-Track

STARLINK-3073, 49135 is a payload satellite owned by SpaceX/Seattle (US) in LEO that was launched on Tue, 14 Sep 2021 UTC via an FALCON 9 launch vehicle from the Air Force Western Test Range (AFWTR). Payload-class satellites include a variety of spacecraft equipped with specific instruments for various scientific and technological missions. These include communications satellites like Starlink; space stations such as the ISS; scientific satellites like the Hubble; Earth observation satellites from companies like Planet Labs, Umbra, and HawkEye 360; GPS; miniature CubeSats for education and research; and military/defense satellites.

Loading next visibility...
Identifier
49135, 2021-082F
Orbit
LEO
Country
Flag of USUS
Related business
Manufacturer
SpaceX/Seattle
Mission
Operational Commercial Communications
Bus & Motor
STARLINK, Unknown motor
Mass
297 kg wet, ~275 kg dry
Launch date (UTC)
2021-09-14 (5 years ago)
Launch vehicle
FALCON 9
Launch site
Air Force Western Test Range (AFWTR)
Object type
Payload
Rocket body
Debris
Shape & HBR
Box + 1 Pan, 10.1 m
Radar Cross Section
13.562 m², Large (>1 m²)

Expand to show TLE details & history
Last TLE update: 1 week ago

TLE from 1 week ago
0 STARLINK-3073
1 49135U 21082F   26155.07586235 -.00000521  00000-0 -35828-4 0  9990
2 49135  69.9978  36.6246 0004094 294.2498  65.8234 14.98336279259910
Epoch: 2026-06-04T01:49Z
TLE epoch observation values (Epoch: 2026-06-04T01:49:14.507Z)
Latitude
0.00009°
Longitude
116.78886°
Altitude
573.296 km
Speed
7.575 km/s
True Right ascension
02h 26m 29s
True Declination
0° 00' 00"
Sunlit
Object was in daylight at epoch
Visualization orbit readout
Latitude
Unknown
Longitude
Unknown
Altitude
Unknown
Speed
Unknown
Apparent Right ascension
Unknown
Apparent Declination
Unknown
Sunlit
N/A
Visualization observer readout
Local Sidereal Time
18:15:24
Azimuth
Unknown
Elevation
Unknown
Doppler factor
Unknown
Orbital elements
Apogee altitude
572.83 km
Perigee altitude
567.14 km
Semi-major axis
6,948.122 km
Eccentricity
0.00041
Inclination
69.9978°
RAAN
36.6246°
Arg. of periapsis
294.2498°
True anomaly
65.86621°
Mean anomaly
65.8234°
Eccentric anomaly
65.8448°
Mean motion
3.7475 °/min
Orbital period
96.06 mins
BSTAR
-0.000035828
Loading maneuver chart data...
Computing Atmospheric mass density...
Loading historical data...
Loading historical data...
Loading historical data...
Loading historical data...
Loading historical data...
Loading historical data...
Loading historical data...

Documentation

Showing up to 5 results
|